Showing default

COSMOS 1833, 17589

Orbit data source: Space-Track

COSMOS 1833, 17589 is a payload satellite owned by GRU (CIS) in LEO that was launched on Wed, 18 Mar 1987 UTC via a ZENIT-2 launch vehicle from the Tyuratam Missile And Space Complex (TTMTR). Payloads include a variety of satellites, spacecraft, and rockets equipped with specific instruments for various scientific and technological missions. These include communications satellites like Starlink; space stations such as the ISS; scientific satellites like the Hubble; Earth observation satellites from companies like Planet Labs, Umbra, and HawkEye 360; GPS; miniature CubeSats for education and research; and military/defense satellites.

Loading next visibility...
COSMOS 1833 details
Identifier
17589, 1987-027A
Orbit
LEO
Last TLE update11 hours ago
Origin
Flag of CISGRU (CIS)
ManufacturerYuzhnoe
MissionDefense Sigint
Bus & MotorTSELINA-2, Unknown motor
Mass3,250 kg wet, 3,250 kg dry
Launch date (UTC)
1987-03-18 (38 years ago)
Launch vehicle
ZENIT-2
Launch site
Tyuratam Missile And Space Complex (TTMTR)
Object type
Payload
Rocket body
Debris
Shape & HBRCyl + 2 Pan + 1 Ant, 22.7 m
Radar Cross Section16.265 m², Large (>1 m²)

Expand to show TLE details & history

TLE from 11 hours ago
0 COSMOS 1833
1 17589U 87027A   25018.53067224  .00000239  00000-0  15348-3 0  9997
2 17589  70.9164 118.6332 0023203 111.9008 248.4583 14.12996209951667
Epoch: 2025-01-18T12:44Z
Definitive object data (Epoch: 2025-01-18T12:44:10.081Z)
Latitude-0.00004°
Longitude169.41255°
Altitude857.721 km
Speed7.421 km/s
True Right ascension07h 54m 31s
True Declination0° 00' 00"
Sunlit
Object was in full shadow at TLE epoch
Visualization TLE readout
Latitude-39.28484°
Longitude4.77983°
Altitude869.44 km
Speed7.414 km/s
Apparent Right ascension17h 21m 42s
Apparent Declination-58° 49' 37"
Sunlit
Object is in daylight
Visualization observer readout
Local Sidereal Time00:52:32
Azimuth222.124° SW
Elevation-44.609°
Doppler factor1
Orbital elements
Apogee altitude863.837 km
Perigee altitude830.307 km
Semi-major axis7,225.209 km
Eccentricity0.0023203
Inclination70.9164°
RAAN118.6332°
Arg. of periapsis111.9008°
True anomaly248.21125°
Mean anomaly248.4583°
Eccentric anomaly248.33475°
Mean motion3.53401 °/min
BSTAR0.00015348
Orbital period101.87 mins
Loading maneuver chart data...
Loading historical data...
Loading historical data...
Loading historical data...
Loading historical data...
Loading historical data...
Loading historical data...
Loading historical data...

COSMOS 1833 Visibility forecast

Observer location: undefined°, undefined

Span
Click to sort rows by Start time (UTC) header in descending order
Start Az.
Max El. time (UTC)
Max El. Az.
Max El.
End time (UTC)
End Az.
10 mins2025-01-19 07:32:26.970Z184.747° SSW2025-01-19 07:37:26.970Z94.85° ESE40.304°2025-01-19 07:42:26.970Z31.416° NE
6 mins2025-01-19 09:19:26.970Z275.536° WNW2025-01-19 09:21:26.970Z302.097° NW19.618°2025-01-19 09:25:26.970Z351.487° N
7 mins2025-01-19 16:29:26.970Z15.025° NNE2025-01-19 16:32:26.970Z60.443° ENE23.743°2025-01-19 16:36:26.970Z109.624° ESE
9 mins2025-01-19 18:12:26.970Z318.905° NNW2025-01-19 18:16:26.970Z256.688° W34.766°2025-01-19 18:21:26.970Z184.439° SSW
|